Preview of NWS' New Version of Forecast
This preview is not operational and should not be used for support decisions.

Regional Weather Roundup (RWR)

Issued by National Weather Service (NWS)

                            
000
ASCA42 TJSJ 191110
RWRPR 
PUERTO RICO/U.S. VIRGIN ISLANDS HOURLY WEATHER ROUNDUP
NATIONAL WEATHER SERVICE SAN JUAN PR
700 AM AST MON AUG 19 2019

PRZ001>002-007>008-010-191200-
PUERTO RICO
  
CITY           SKY/WX    TMP DP  RH WIND       PRES   REMARKS
SAN JUAN LMM   MOSUNNY   79  73  83 E6        30.02R                  
AGUADILLA      SUNNY     75  73  94 E6        30.04                   
CEIBA          SUNNY     77  75  94 NW6       30.04R                  
$$

VIZ001>002-191200-
U.S. VIRGIN ISLANDS
  
CITY           SKY/WX    TMP DP  RH WIND       PRES   REMARKS
CHARLOTTE AMA  SUNNY     81  75  83 E10       30.02R                  
CHRISTIANSTED  PTSUNNY   79  75  89 NE6       30.02R                  
$$

HOURLY WEATHER ROUNDUP FOR THE NEWS MEDIA
  
CITY           SKY/WX    TMP DP  RH WIND       PRES   REMARKS
ORLANDO        FAIR      78  72  81 CALM      30.08R                  
NEW YORK       MOCLDY    75  75 100 SW5       30.00R                  
NEWARK         MOCLDY    74  71  91 SW3       29.99S                  
CHICAGO        FAIR      68  65  90 CALM      29.98R                  
HARTFORD       PTSUNNY   76  72  87 SW6       30.00R                  
BOSTON         FAIR      77  71  82 SW8       29.97S                  
DALLAS         PTCLDY    83  71  67 S7        29.95R                  
PHILADELPHIA   MOCLDY    76  74  93 S5        30.00R                  
LOS ANGELES    CLOUDY    67  60  78 SW7       29.94R                  
WASHINGTON DC  MOCLDY    71  66  84 NW3       30.00R